INFORMACIÓN METAR y TAF
METAR FOR LGIR
ADDS - METARS form results

(0758 UTC 15 April 2021)
Data provider http://aviationweather.gov/metar/data/
 
METAR text: LGIR 150750Z 35004KT 9999 SCT025 19/16 Q1016 NOSIG
Conditions at: LGIR (IRAKLION (CIV/AF, GR) observed 0750 UTC 15 April 2021
Temperature: 19.0°C (66°F)
Dewpoint: 16.0°C (61°F) [RH = 83%]
Pressure (altimeter): 30.00 inches Hg (1016.0 mb)
Winds: from the N (350 degrees) at 5 MPH (4 knots; 2.1 m/s)
Visibility: 6 or more miles (10+ km)
Ceiling: at least 12,000 feet AGL
Clouds: scattered clouds at 2500 feet AGL
Weather: no significant weather observed at this time

METAR text: LGIR 150720Z VRB02KT 9999 SCT025 18/15 Q1016 NOSIG
Conditions at: LGIR (IRAKLION (CIV/AF, GR) observed 0720 UTC 15 April 2021
Temperature: 18.0°C (64°F)
Dewpoint: 15.0°C (59°F) [RH = 83%]
Pressure (altimeter): 30.00 inches Hg (1016.0 mb)
Winds: variable direction winds at 2 MPH (2 knots; 1.0 m/s)
Visibility: 6 or more miles (10+ km)
Ceiling: at least 12,000 feet AGL
Clouds: scattered clouds at 2500 feet AGL
Weather: no significant weather observed at this time

Forecast for: LGIR (IRAKLION (CIV/AF, GR)
Text: TAF LGIR 150500Z 1506/1606 VRB05KT 9999 FEW025
Forecast period: 0600 UTC 15 April 2021 to 0600 UTC 16 April 2021
Forecast type: FROM: standard forecast or significant change
Winds: variable direction winds at 6 MPH (5 knots; 2.6 m/s)
Visibility: 6 or more miles (10+ km)
Ceiling: at least 12,000 feet AGL
Clouds: few clouds at 2500 feet AGL
Weather: no significant weather forecast for this period

 MAPA DE AEROPUERTO

 INFORMACIÓN DE PISTA
Pista 09 Longitud 8800 ft Ancho 148 ft
Elevación 78 ft Umbral desplazado 1565 ft Rumbo de pista 95
Pista 27 Longitud 8800 ft Ancho 148 ft
Elevación 82 ft Umbral desplazado 0 ft Rumbo de pista 275
Pista 12 Longitud 5138 ft Ancho 164 ft
Elevación 57 ft Umbral desplazado 499 ft Rumbo de pista 126
Pista 30 Longitud 5138 ft Ancho 164 ft
Elevación 115 ft Umbral desplazado 0 ft Rumbo de pista 306
Pista 18 Longitud 2559 ft Ancho 131 ft
Elevación 78 ft Umbral desplazado 0 ft Rumbo de pista 180
Pista 36 Longitud 2559 ft Ancho 131 ft
Elevación 115 ft Umbral desplazado 328 ft Rumbo de pista 0

 FRECUANCIAS DEL AEROPUERTO
Tipo A/G Nombre KAZANTZAKI Frecuencia 563.7 MHZ
Tipo APP Nombre IRAKLION A Frecuencia 123.975 MHZ
Tipo ATIS Nombre ATIS Frecuencia 127.55 MHZ
Tipo DIR Nombre IRAKLION D Frecuencia 118.025 MHZ
Tipo GND Nombre KAZANTZAKI Frecuencia 121.7 MHZ
Tipo TRSA Nombre IRAKLION R Frecuencia 123.975 MHZ
Tipo TWR Nombre KAZANTZAKI Frecuencia 120.85 MHZ

 RADIO AYUDAS DEL AEROPUERTO
Tipo NDB Nombre Iraklion Frecuencia 431 KHZ
Tipo VOR-DME Nombre Iraklion Frecuencia 108800 KHZ
Tipo TACAN Nombre Iraklion Frecuencia 108300 KHZ



Powered by Virtual Airlines Manager [v2.6.2]